PKARZ WADL-WADD

Flight info

Callsign PKARZ
Flight time 0h 32m
Altitude 8000
Route SBECH
Aircraft C208/L-SDFGR/C

Departure

Time 2026-04-20 14:29
Airport Lombok International Airport (WADL)

Arrival

Time 2026-04-20 15:01
Airport Denpasar I Gusti Ngurah Rai International Airport (WADD)
Time Latitude Longitude Altitude Speed Heading
2026-04-20 14:13 -8.75891 116.27139 333 ft 0 kts 218°
2026-04-20 14:23 -8.75887 116.27142 333 ft 1 kts 218°
2026-04-20 14:23 -8.75888 116.27142 333 ft 0 kts 218°
2026-04-20 14:25 -8.75891 116.27139 333 ft 2 kts 218°
2026-04-20 14:26 -8.75896 116.27136 332 ft 1 kts 218°
2026-04-20 14:26 -8.75886 116.27144 333 ft 2 kts 218°
2026-04-20 14:26 -8.75869 116.27160 331 ft 7 kts 294°
2026-04-20 14:26 -8.75875 116.27166 331 ft 0 kts 316°
2026-04-20 14:27 -8.75835 116.27157 333 ft 27 kts 13°
2026-04-20 14:27 -8.75722 116.27243 331 ft 20 kts 325°
2026-04-20 14:27 -8.75632 116.27133 332 ft 25 kts 308°
2026-04-20 14:27 -8.75599 116.27086 331 ft 10 kts 132°
2026-04-20 14:28 -8.75705 116.27228 330 ft 35 kts 127°
2026-04-20 14:28 -8.75755 116.27398 328 ft 25 kts 41°
2026-04-20 14:28 -8.75710 116.27523 332 ft 23 kts 131°
2026-04-20 14:28 -8.75979 116.27848 355 ft 91 kts 129°
2026-04-20 14:29 -8.76419 116.28401 643 ft 105 kts 127°
2026-04-20 14:29 -8.76898 116.28974 1042 ft 105 kts 130°
2026-04-20 14:29 -8.77391 116.29543 1446 ft 107 kts 131°
2026-04-20 14:29 -8.77873 116.30106 1906 ft 106 kts 130°
2026-04-20 14:30 -8.78358 116.30668 2372 ft 107 kts 131°
2026-04-20 14:30 -8.78848 116.31229 2774 ft 107 kts 130°
2026-04-20 14:30 -8.79342 116.31791 3171 ft 107 kts 131°
2026-04-20 14:30 -8.79839 116.32351 3540 ft 107 kts 130°
2026-04-20 14:31 -8.80336 116.32915 3905 ft 108 kts 131°
2026-04-20 14:31 -8.80834 116.33481 4267 ft 108 kts 130°
2026-04-20 14:31 -8.81331 116.34047 4648 ft 108 kts 131°
2026-04-20 14:31 -8.81833 116.34622 5010 ft 109 kts 131°
2026-04-20 14:32 -8.82335 116.35196 5354 ft 109 kts 131°
2026-04-20 14:32 -8.82837 116.35773 5702 ft 110 kts 131°
2026-04-20 14:32 -8.83335 116.36358 5998 ft 115 kts 131°
2026-04-20 14:32 -8.83917 116.37038 6004 ft 139 kts 131°
2026-04-20 14:33 -8.84585 116.37815 6008 ft 152 kts 132°
2026-04-20 14:33 -8.85302 116.38645 6007 ft 160 kts 131°
2026-04-20 14:33 -8.86047 116.39507 6002 ft 165 kts 131°
2026-04-20 14:33 -8.86844 116.40339 6006 ft 166 kts 147°
2026-04-20 14:34 -8.87965 116.40549 6005 ft 171 kts 191°
2026-04-20 14:34 -8.88949 116.39883 6003 ft 178 kts 233°
2026-04-20 14:34 -8.89273 116.38671 6005 ft 183 kts 267°
2026-04-20 14:34 -8.89256 116.37388 6004 ft 183 kts 270°
2026-04-20 14:35 -8.89218 116.36097 6003 ft 184 kts 271°
2026-04-20 14:35 -8.89181 116.34803 6002 ft 184 kts 271°
2026-04-20 14:35 -8.89143 116.33506 6004 ft 184 kts 271°
2026-04-20 14:35 -8.89105 116.32212 6004 ft 185 kts 271°
2026-04-20 14:36 -8.89068 116.30916 6007 ft 184 kts 271°
2026-04-20 14:36 -8.89029 116.29619 6006 ft 184 kts 271°
2026-04-20 14:36 -8.88992 116.28320 6006 ft 185 kts 270°
2026-04-20 14:36 -8.88953 116.27024 6006 ft 185 kts 270°
2026-04-20 14:37 -8.88912 116.25725 6004 ft 184 kts 270°
2026-04-20 14:37 -8.88868 116.24417 5993 ft 188 kts 270°
2026-04-20 14:37 -8.88821 116.23091 5995 ft 189 kts 271°
2026-04-20 14:37 -8.88776 116.21760 5991 ft 189 kts 271°
2026-04-20 14:38 -8.88730 116.20431 5992 ft 189 kts 271°
2026-04-20 14:38 -8.88688 116.19105 5993 ft 189 kts 270°
2026-04-20 14:38 -8.88644 116.17778 5989 ft 189 kts 270°
2026-04-20 14:38 -8.88600 116.16448 5990 ft 189 kts 271°
2026-04-20 14:39 -8.88555 116.15120 5991 ft 189 kts 271°
2026-04-20 14:39 -8.88511 116.13793 5991 ft 189 kts 270°
2026-04-20 14:39 -8.88466 116.12465 5997 ft 189 kts 270°
2026-04-20 14:39 -8.88422 116.11138 5995 ft 189 kts 271°
2026-04-20 14:40 -8.88380 116.09815 5992 ft 189 kts 271°
2026-04-20 14:40 -8.88336 116.08489 5994 ft 189 kts 271°
2026-04-20 14:40 -8.88292 116.07161 5993 ft 189 kts 270°
2026-04-20 14:40 -8.88247 116.05832 5994 ft 189 kts 270°
2026-04-20 14:41 -8.88200 116.04501 5995 ft 190 kts 271°
2026-04-20 14:41 -8.88153 116.03170 5994 ft 189 kts 271°
2026-04-20 14:41 -8.88108 116.01838 5997 ft 190 kts 271°
2026-04-20 14:41 -8.88059 116.00505 5997 ft 190 kts 270°
2026-04-20 14:42 -8.88009 115.99174 5999 ft 189 kts 271°
2026-04-20 14:42 -8.87961 115.97845 6002 ft 189 kts 271°
2026-04-20 14:42 -8.87930 115.96964 6000 ft 189 kts 271°
2026-04-20 14:42 -8.87869 115.95199 6000 ft 189 kts 270°
2026-04-20 14:43 -8.87839 115.94302 5995 ft 189 kts 270°
2026-04-20 14:43 -8.87791 115.92973 5994 ft 189 kts 270°
2026-04-20 14:43 -8.87743 115.91640 5994 ft 190 kts 271°
2026-04-20 14:43 -8.87694 115.90307 5994 ft 190 kts 271°
2026-04-20 14:44 -8.87644 115.88974 5997 ft 190 kts 271°
2026-04-20 14:44 -8.87595 115.87652 5997 ft 190 kts 270°
2026-04-20 14:44 -8.87548 115.86308 6004 ft 189 kts 271°
2026-04-20 14:44 -8.87504 115.84979 6011 ft 189 kts 271°
2026-04-20 14:45 -8.87461 115.83652 6012 ft 189 kts 271°
2026-04-20 14:45 -8.87413 115.82322 6012 ft 189 kts 271°
2026-04-20 14:45 -8.87368 115.80988 6013 ft 189 kts 270°
2026-04-20 14:45 -8.87320 115.79657 6014 ft 190 kts 271°
2026-04-20 14:46 -8.87273 115.78324 6009 ft 190 kts 271°
2026-04-20 14:46 -8.87225 115.76993 6010 ft 190 kts 271°
2026-04-20 14:46 -8.87184 115.75659 6009 ft 190 kts 271°
2026-04-20 14:46 -8.87143 115.74328 6010 ft 190 kts 271°
2026-04-20 14:47 -8.87101 115.72994 6009 ft 189 kts 270°
2026-04-20 14:47 -8.87061 115.71664 6010 ft 189 kts 270°
2026-04-20 14:47 -8.87020 115.70333 6011 ft 190 kts 271°
2026-04-20 14:48 -8.86938 115.67668 6010 ft 190 kts 270°
2026-04-20 14:48 -8.86893 115.66333 6010 ft 190 kts 271°
2026-04-20 14:48 -8.86848 115.65002 6012 ft 189 kts 270°
2026-04-20 14:48 -8.86805 115.63671 6009 ft 189 kts 270°
2026-04-20 14:49 -8.86758 115.62340 6009 ft 190 kts 271°
2026-04-20 14:49 -8.86711 115.61008 6009 ft 189 kts 271°
2026-04-20 14:49 -8.86663 115.59678 6009 ft 190 kts 271°
2026-04-20 14:49 -8.86616 115.58345 6010 ft 190 kts 270°
2026-04-20 14:50 -8.86566 115.57014 6013 ft 190 kts 270°
2026-04-20 14:50 -8.86516 115.55681 6013 ft 190 kts 271°
2026-04-20 14:50 -8.86467 115.54349 6013 ft 189 kts 271°
2026-04-20 14:50 -8.86418 115.53020 6014 ft 189 kts 271°
2026-04-20 14:51 -8.86370 115.51687 6010 ft 189 kts 271°
2026-04-20 14:51 -8.86321 115.50373 5923 ft 191 kts 271°
2026-04-20 14:51 -8.86068 115.49048 5671 ft 194 kts 290°
2026-04-20 14:51 -8.85558 115.47777 5402 ft 195 kts 292°
2026-04-20 14:52 -8.85031 115.46509 5130 ft 196 kts 291°
2026-04-20 14:52 -8.84568 115.45218 4867 ft 195 kts 289°
2026-04-20 14:52 -8.84129 115.43933 4610 ft 194 kts 289°
2026-04-20 14:52 -8.83689 115.42647 4340 ft 193 kts 289°
2026-04-20 14:53 -8.83251 115.41367 4101 ft 191 kts 289°
2026-04-20 14:53 -8.82812 115.40088 3881 ft 189 kts 289°
2026-04-20 14:53 -8.82381 115.38836 3661 ft 188 kts 289°
2026-04-20 14:53 -8.81952 115.37589 3440 ft 187 kts 289°
2026-04-20 14:54 -8.81529 115.36353 3237 ft 186 kts 289°
2026-04-20 14:54 -8.81191 115.35093 3008 ft 185 kts 279°
2026-04-20 14:54 -8.81055 115.33801 2786 ft 184 kts 272°
2026-04-20 14:54 -8.81034 115.32510 2566 ft 183 kts 270°
2026-04-20 14:55 -8.81025 115.31221 2315 ft 184 kts 270°
2026-04-20 14:55 -8.81022 115.29934 2075 ft 184 kts 270°
2026-04-20 14:55 -8.81021 115.28635 1829 ft 185 kts 269°
2026-04-20 14:55 -8.81017 115.27338 1587 ft 185 kts 269°
2026-04-20 14:56 -8.81009 115.26054 1500 ft 177 kts 270°
2026-04-20 14:56 -8.81004 115.24835 1497 ft 170 kts 270°
2026-04-20 14:56 -8.80995 115.23660 1494 ft 164 kts 270°
2026-04-20 14:56 -8.80988 115.22506 1488 ft 165 kts 270°
2026-04-20 14:57 -8.80992 115.21352 1490 ft 163 kts 270°
2026-04-20 14:57 -8.80991 115.20216 1491 ft 160 kts 269°
2026-04-20 14:57 -8.80986 115.19097 1491 ft 159 kts 270°
2026-04-20 14:57 -8.80983 115.17986 1495 ft 159 kts 270°
2026-04-20 14:58 -8.80982 115.16865 1491 ft 160 kts 269°
2026-04-20 14:58 -8.80971 115.15757 1486 ft 160 kts 270°
2026-04-20 14:58 -8.80903 115.14638 1493 ft 160 kts 288°
2026-04-20 14:58 -8.80192 115.13816 1504 ft 159 kts 337°
2026-04-20 14:59 -8.79095 115.13648 1377 ft 160 kts
2026-04-20 14:59 -8.78057 115.13626 1151 ft 149 kts
2026-04-20 14:59 -8.77020 115.13616 879 ft 149 kts
2026-04-20 14:59 -8.76018 115.13609 796 ft 133 kts
2026-04-20 15:00 -8.75307 115.13809 789 ft 92 kts 52°
2026-04-20 15:00 -8.74991 115.14367 451 ft 94 kts 79°
2026-04-20 15:00 -8.74948 115.15002 205 ft 90 kts 81°
2026-04-20 15:00 -8.74893 115.15618 61 ft 86 kts 85°
2026-04-20 15:01 -8.74869 115.16174 27 ft 72 kts 88°
2026-04-20 15:01 -8.74862 115.16425 28 ft 21 kts 102°
2026-04-20 15:01 -8.74979 115.16478 30 ft 13 kts 160°
2026-04-20 15:01 -8.75011 115.16514 31 ft 8 kts 115°
2026-04-20 15:02 -8.75016 115.16541 31 ft 0 kts 87°
2026-04-20 15:03 -8.75015 115.16551 31 ft 0 kts 87°
2026-04-20 15:03 -8.75015 115.16552 31 ft 3 kts 87°
2026-04-20 15:04 -8.75011 115.16615 31 ft 12 kts 87°
2026-04-20 15:04 -8.75010 115.16683 31 ft 8 kts 87°
2026-04-20 15:04 -8.75013 115.16716 32 ft 3 kts 129°
2026-04-20 15:04 -8.75042 115.16718 32 ft 5 kts 174°
2026-04-20 15:05 -8.75071 115.16720 32 ft 2 kts 176°
2026-04-20 15:05 -8.75084 115.16720 32 ft 2 kts 178°
2026-04-20 15:05 -8.75085 115.16720 32 ft 0 kts 177°